| time (UTC) | temp F | wind direction | speed knots | gust knots | rain 1hr in | rain 24hr in | rain mn in | humidity % | barometer mb |
| 20260506201525 | 76 | 313 | 7.0 | 20.0 | 0.00 | 0.00 | 0.00 | 14 | 992.1 |
| 20260506200007 | 77 | 324 | 7.8 | 19.1 | 0.00 | 0.00 | 0.00 | 15 | 992.2 |
| 20260506194506 | 75 | 324 | 12.2 | 18.2 | 0.00 | 0.00 | 0.00 | 18 | 992.1 |
| 20260506193001 | 74 | 10 | 13.0 | 17.4 | 0.00 | 0.00 | 0.00 | 16 | 992.6 |
| 20260506191619 | 75 | 300 | 8.7 | 22.6 | 0.00 | 0.00 | 0.00 | 17 | 992.6 |
| 20260506190053 | 73 | 355 | 7.8 | 19.1 | 0.00 | 0.00 | 0.00 | 20 | 992.9 |
| 20260506184559 | 72 | 279 | 8.7 | 16.5 | 0.00 | 0.00 | 0.00 | 21 | 993.1 |
| 20260506183045 | 72 | 325 | 10.4 | 20.9 | 0.00 | 0.00 | 0.00 | 21 | 993.3 |
| 20260506181543 | 70 | 316 | 6.1 | 13.0 | 0.00 | 0.00 | 0.00 | 21 | 993.3 |
| 20260506180040 | 70 | 360 | 5.2 | 19.1 | 0.00 | 0.00 | 0.00 | 24 | 993.5 |
| 20260506174536 | 69 | 355 | 5.2 | 11.3 | 0.00 | 0.00 | 0.00 | 25 | 993.5 |
| 20260506173030 | 68 | 34 | 8.7 | 13.0 | 0.00 | 0.00 | 0.00 | 26 | 993.7 |
| 20260506171538 | 67 | 277 | 2.6 | 16.5 | 0.00 | 0.00 | 0.00 | 28 | 993.9 |
| 20260506170024 | 66 | 288 | 6.1 | 16.5 | 0.00 | 0.00 | 0.00 | 30 | 993.8 |
| 20260506164524 | 65 | 5 | 9.6 | 16.5 | 0.00 | 0.00 | 0.00 | 29 | 993.7 |
| 20260506163023 | 64 | 355 | 3.5 | 13.0 | 0.00 | 0.00 | 0.00 | 32 | 993.7 |
| 20260506161524 | 63 | 333 | 3.5 | 15.6 | 0.00 | 0.00 | 0.00 | 35 | 993.8 |
| 20260506160018 | 62 | 296 | 7.0 | 15.6 | 0.00 | 0.00 | 0.00 | 36 | 993.7 |
| 20260506154520 | 62 | 342 | 9.6 | 17.4 | 0.00 | 0.00 | 0.00 | 37 | 993.7 |
| 20260506153016 | 61 | 343 | 7.8 | 11.3 | 0.00 | 0.00 | 0.00 | 39 | 993.7 |
| 20260506151522 | 60 | 355 | 11.3 | 17.4 | 0.00 | 0.00 | 0.00 | 40 | 993.8 |
| 20260506150119 | 58 | 5 | 7.8 | 12.2 | 0.00 | 0.00 | 0.00 | 43 | 993.8 |
| 20260506144558 | 58 | 350 | 8.7 | 13.0 | 0.00 | 0.00 | 0.00 | 44 | 993.8 |
| 20260506143044 | 57 | 350 | 7.8 | 11.3 | 0.00 | 0.00 | 0.00 | 46 | 993.7 |
| 20260506141541 | 56 | 325 | 8.7 | 13.0 | 0.00 | 0.00 | 0.00 | 47 | 993.8 |
| 20260506140040 | 53 | 334 | 2.6 | 9.6 | 0.00 | 0.00 | 0.00 | 55 | 993.7 |
| 20260506134538 | 49 | 333 | 1.7 | 7.8 | 0.00 | 0.00 | 0.00 | 65 | 993.7 |
| 20260506133036 | 43 | 32 | 0.9 | 3.5 | 0.00 | 0.00 | 0.00 | 82 | 993.6 |
| 20260506131541 | 38 | 30 | 0.0 | 0.9 | 0.00 | 0.00 | 0.00 | 85 | 993.4 |
| 20260506130127 | 36 | 31 | 0.0 | 1.7 | 0.00 | 0.00 | 0.00 | 83 | 993.1 |
| 20260506124522 | 37 | 30 | 0.0 | 0.9 | 0.00 | 0.00 | 0.00 | 82 | 992.9 |
| 20260506123018 | 37 | 355 | 0.0 | 1.7 | 0.00 | 0.00 | 0.00 | 81 | 992.7 |
| 20260506121513 | 37 | 360 | 0.0 | 1.7 | 0.00 | 0.00 | 0.00 | 79 | 992.6 |
| 20260506120009 | 38 | 360 | 0.0 | 0.9 | 0.00 | 0.00 | 0.00 | 77 | 992.4 |
| 20260506114522 | 39 | 360 | 0.0 | 3.5 | 0.00 | 0.00 | 0.00 | 76 | 992.2 |
| 20260506113003 | 40 | 347 | 0.0 | 3.5 | 0.00 | 0.00 | 0.00 | 73 | 992.2 |
| 20260506111531 | 42 | 346 | 0.0 | 4.3 | 0.00 | 0.00 | 0.00 | 70 | 992.0 |
| 20260506110034 | 41 | 322 | 1.7 | 4.3 | 0.00 | 0.00 | 0.00 | 72 | 991.9 |
| 20260506104604 | 43 | 340 | 0.0 | 3.5 | 0.00 | 0.00 | 0.00 | 67 | 991.9 |
| 20260506103055 | 46 | 337 | 0.0 | 3.5 | 0.00 | 0.00 | 0.00 | 63 | 991.9 |
| 20260506101552 | 48 | 49 | 0.0 | 3.5 | 0.00 | 0.00 | 0.00 | 59 | 991.9 |
| 20260506100104 | 50 | 320 | 0.9 | 7.8 | 0.00 | 0.00 | 0.00 | 53 | 991.9 |
| 20260506094550 | 49 | 291 | 0.0 | 4.3 | 0.00 | 0.00 | 0.00 | 56 | 991.9 |
| 20260506093048 | 50 | 281 | 0.0 | 0.9 | 0.00 | 0.00 | 0.00 | 54 | 991.8 |
| 20260506091521 | 50 | 281 | 0.9 | 5.2 | 0.00 | 0.00 | 0.00 | 54 | 992.0 |
| 20260506090017 | 46 | 290 | 0.0 | 5.2 | 0.00 | 0.00 | 0.00 | 60 | 992.1 |
| 20260506084513 | 46 | 360 | 0.0 | 0.9 | 0.00 | 0.00 | 0.00 | 61 | 992.2 |
| 20260506083013 | 48 | 34 | 0.0 | 7.8 | 0.00 | 0.00 | 0.00 | 54 | 992.4 |
| 20260506081512 | 50 | 342 | 0.0 | 8.7 | 0.00 | 0.00 | 0.00 | 53 | 992.4 |
| 20260506073007 | 47 | 360 | 0.9 | 4.3 | 0.00 | 0.00 | 0.00 | 55 | 992.9 |
| 20260506071505 | 47 | 360 | 0.0 | 4.3 | 0.00 | 0.00 | 0.00 | 55 | 992.8 |
| 20260506061528 | 44 | 296 | 0.0 | 3.5 | 0.00 | 0.00 | 0.00 | 60 | 992.9 |
| 20260506044510 | 53 | 30 | 0.0 | 4.3 | 0.00 | 0.00 | 0.00 | 42 | 992.8 |
| 20260506043005 | 51 | 333 | 0.9 | 4.3 | 0.00 | 0.00 | 0.00 | 44 | 992.6 |
| 20260506041532 | 53 | 348 | 0.0 | 1.7 | 0.00 | 0.00 | 0.00 | 42 | 992.0 |
| 20260506040032 | 55 | 347 | 0.0 | 7.0 | 0.00 | 0.00 | 0.00 | 37 | 992.0 |
| 20260506034530 | 53 | 336 | 1.7 | 7.0 | 0.00 | 0.00 | 0.00 | 40 | 992.0 |
| 20260506033033 | 54 | 305 | 0.0 | 0.9 | 0.00 | 0.00 | 0.00 | 46 | 991.8 |
| 20260506031530 | 57 | 305 | 0.0 | 0.9 | 0.00 | 0.00 | 0.00 | 40 | 991.5 |
| 20260506030041 | 58 | 300 | 1.7 | 4.3 | 0.00 | 0.00 | 0.00 | 34 | 991.5 |
| 20260506024554 | 59 | 24 | 3.5 | 8.7 | 0.00 | 0.00 | 0.00 | 32 | 991.3 |
| 20260506023042 | 60 | 346 | 5.2 | 11.3 | 0.00 | 0.00 | 0.00 | 32 | 990.9 |
| 20260506021538 | 60 | 321 | 4.3 | 11.3 | 0.00 | 0.00 | 0.00 | 33 | 990.6 |
| 20260506020035 | 62 | 346 | 6.1 | 12.2 | 0.00 | 0.00 | 0.00 | 31 | 990.8 |
| 20260506014539 | 62 | 303 | 7.8 | 20.9 | 0.00 | 0.00 | 0.00 | 31 | 990.6 |
| 20260506013031 | 63 | 319 | 10.4 | 19.1 | 0.00 | 0.00 | 0.00 | 31 | 990.3 |
| 20260506011534 | 65 | 329 | 13.9 | 24.3 | 0.00 | 0.00 | 0.00 | 30 | 990.1 |
| 20260506010101 | 65 | 323 | 14.8 | 23.5 | 0.00 | 0.00 | 0.00 | 30 | 989.9 |
| 20260506004552 | 66 | 298 | 13.9 | 20.9 | 0.00 | 0.00 | 0.00 | 31 | 989.5 |
| 20260506003023 | 67 | 325 | 13.0 | 25.2 | 0.00 | 0.00 | 0.00 | 28 | 989.6 |
| 20260506001519 | 67 | 330 | 10.4 | 26.1 | 0.00 | 0.00 | 0.00 | 29 | 989.6 |
| 20260506000018 | 67 | 314 | 17.4 | 22.6 | 0.00 | 0.00 | 0.00 | 29 | 989.6 |
| 20260505234514 | 67 | 338 | 13.9 | 20.9 | 0.00 | 0.00 | 0.00 | 29 | 989.5 |
| 20260505233012 | 67 | 342 | 14.8 | 26.1 | 0.00 | 0.00 | 0.00 | 29 | 989.7 |
| 20260505231520 | 67 | 325 | 18.2 | 24.3 | 0.00 | 0.00 | 0.00 | 29 | 989.7 |
| 20260505230012 | 68 | 327 | 12.2 | 20.9 | 0.00 | 0.00 | 0.00 | 29 | 989.4 |
| 20260505224509 | 68 | 321 | 15.6 | 24.3 | 0.00 | 0.00 | 0.00 | 25 | 989.4 |
| 20260505223005 | 68 | 333 | 14.8 | 30.4 | 0.00 | 0.00 | 0.00 | 28 | 989.4 |
| 20260505221504 | 68 | 348 | 13.9 | 22.6 | 0.00 | 0.00 | 0.00 | 26 | 989.6 |
| 20260505220002 | 69 | 16 | 12.2 | 27.8 | 0.00 | 0.00 | 0.00 | 26 | 989.8 |
| 20260505214605 | 70 | 9 | 13.9 | 22.6 | 0.00 | 0.00 | 0.00 | 23 | 989.7 |
| 20260505213109 | 71 | 28 | 8.7 | 24.3 | 0.00 | 0.00 | 0.00 | 21 | 989.6 |
| 20260505211556 | 72 | 54 | 14.8 | 22.6 | 0.00 | 0.00 | 0.00 | 19 | 988.9 |
| 20260505210058 | 74 | 5 | 13.9 | 23.5 | 0.00 | 0.00 | 0.00 | 20 | 989.2 |
| 20260505204554 | 74 | 26 | 13.9 | 25.2 | 0.00 | 0.00 | 0.00 | 20 | 989.3 |
| 20260505203055 | 73 | 24 | 14.8 | 22.6 | 0.00 | 0.00 | 0.00 | 20 | 989.3 |